FW9179 Weather Reports


time (UTC)temp
F
wind
direction
speed
knots
gust
knots
rain 1hr
in
rain 24hr
in
rain mn
in
humidity
%
barometer
mb
20260505140104 44 175 2.6 3.5 0.00 0.00 0.00 79 903.4
20260505130107 46 143 4.3 7.8 0.00 0.00 0.00 76 903.7
20260505124605 47 141 4.3 7.0 0.00 0.00 0.00 75 903.7
20260505123104 49 136 1.7 3.5 0.00 0.00 0.00 72 903.9
20260505121604 50 105 5.2 5.2 0.00 0.00 0.00 71 903.9
20260505120106 51 124 6.1 7.0 0.00 0.00 0.00 70 904.1
20260505113104 51 121 5.2 8.7 0.00 0.00 0.00 69 904.1
20260505111604 51 114 6.1 7.8 0.00 0.00 0.00 70 904.1
20260505110104 51 107 7.0 8.7 0.00 0.00 0.00 69 904.1
20260505101605 51 71 5.2 7.8 0.00 0.00 0.00 70 904.3
20260505100108 51 56 7.8 11.3 0.00 0.00 0.00 71 904.3
20260505094606 51 58 8.7 10.4 0.00 0.00 0.00 70 904.3
20260505093111 51 53 7.8 9.6 0.00 0.00 0.00 69 904.4
20260505091604 52 54 11.3 19.1 0.00 0.00 0.00 69 904.3
20260505090106 52 61 8.7 10.4 0.00 0.00 0.00 68 904.4
20260505084604 53 46 11.3 15.6 0.00 0.00 0.00 67 904.5
20260505083108 53 51 8.7 9.6 0.00 0.00 0.00 67 904.4
20260505081605 53 65 7.8 9.6 0.00 0.00 0.00 67 904.5
20260505074608 53 60 7.8 9.6 0.00 0.00 0.00 67 904.4
20260505073106 53 32 10.4 16.5 0.00 0.00 0.00 67 904.4
20260505071605 53 25 9.6 12.2 0.00 0.00 0.00 68 904.4
20260505070106 53 48 6.1 11.3 0.00 0.00 0.00 69 904.5
20260505064608 53 40 7.0 8.7 0.00 0.00 0.00 69 904.4
20260505063106 53 35 7.0 9.6 0.00 0.00 0.00 69 904.7
20260505061604 54 10 9.6 13.9 0.00 0.00 0.00 68 904.5
20260505060104 54 5 11.3 20.0 0.00 0.00 0.00 68 904.7
20260505054607 53 16 10.4 20.0 0.00 0.00 0.00 69 904.7
20260505053109 53 10 7.8 10.4 0.00 0.00 0.00 69 904.7
20260505051604 54 11 11.3 20.9 0.00 0.00 0.00 69 904.7
20260505050107 54 15 7.0 10.4 0.00 0.00 0.00 68 904.5
20260505041607 53 19 5.2 7.0 0.00 0.00 0.00 69 904.5
20260505040107 54 46 4.3 7.0 0.00 0.00 0.00 68 904.8
20260505034603 54 32 3.5 7.0 0.00 0.00 0.00 68 904.8
20260505033105 54 17 5.2 7.8 0.00 0.00 0.00 67 904.7
20260505031605 54 39 3.5 5.2 0.00 0.00 0.00 68 904.8
20260505030105 54 12 4.3 6.1 0.00 0.00 0.00 67 904.9
20260505024604 55 5 4.3 7.8 0.00 0.00 0.00 67 904.8
20260505023104 56 355 5.2 12.2 0.00 0.00 0.00 66 905.0
20260505021610 56 17 3.5 7.0 0.00 0.00 0.00 66 904.7
20260505014604 58 347 1.7 5.2 0.00 0.00 0.00 66 904.5
20260505011607 58 299 4.3 9.6 0.00 0.00 0.00 66 904.7
20260505010105 59 309 6.1 11.3 0.00 0.00 0.00 65 905.0
20260505004607 59 281 5.2 7.0 0.00 0.00 0.00 65 904.3
20260505003104 59 311 7.0 10.4 0.00 0.00 0.00 64 904.1
20260505001613 59 307 6.1 9.6 0.00 0.00 0.00 64 903.8
20260505000104 59 311 5.2 9.6 0.00 0.00 0.00 64 903.8
20260504234603 59 308 5.2 7.8 0.00 0.00 0.00 65 903.7
20260504233104 59 303 5.2 7.8 0.00 0.00 0.00 67 903.6
20260504231604 59 301 5.2 8.7 0.00 0.00 0.00 70 903.6
20260504230105 58 310 7.0 10.4 0.00 0.00 0.00 70 903.6
20260504224604 58 303 5.2 7.0 0.00 0.00 0.00 72 903.4
20260504223104 58 297 6.1 9.6 0.00 0.00 0.00 73 903.4
20260504221604 57 280 4.3 7.0 0.00 0.00 0.00 73 903.3
20260504220104 58 298 5.2 8.7 0.00 0.00 0.00 73 903.3
20260504214604 57 306 3.5 7.0 0.00 0.00 0.00 74 903.2
20260504213108 56 308 3.5 6.1 0.00 0.00 0.00 75 903.1
20260504211607 56 308 3.5 7.0 0.00 0.00 0.00 75 903.1
20260504204603 56 324 1.7 3.5 0.00 0.00 0.00 70 902.8
20260504203104 56 305 5.2 8.7 0.00 0.00 0.00 72 902.8
20260504201604 55 304 2.6 5.2 0.00 0.00 0.00 73 902.8
20260504194604 56 321 2.6 6.1 0.00 0.00 0.00 74 902.9
20260504193104 55 28 2.6 5.2 0.00 0.00 0.00 75 902.9
20260504191613 55 324 5.2 7.0 0.00 0.00 0.00 74 902.8
20260504190107 54 325 2.6 4.3 0.00 0.00 0.00 72 902.8
20260504184604 54 339 2.6 7.0 0.00 0.00 0.00 70 902.8
20260504183110 54 312 4.3 7.0 0.00 0.00 0.00 67 902.7
20260504181607 54 317 3.5 5.2 0.00 0.00 0.00 65 902.8
20260504173104 54 320 2.6 5.2 0.00 0.00 0.00 69 902.9
20260504171610 53 301 3.5 5.2 0.00 0.00 0.00 68 902.9
20260504170107 54 311 3.5 7.0 0.00 0.00 0.00 67 903.1
20260504160107 53 296 0.9 3.5 0.00 0.00 0.00 69 903.1
20260504150104 53 20 3.5 5.2 0.00 0.00 0.00 67 904.1